2022/10/21 00:00:00, 0.0, 6.3
2022/10/21 00:10:00, 0.0, 5.6
2022/10/21 00:20:00, 0.0, 6.3
2022/10/21 00:30:00, 0.0, 5.9
2022/10/21 00:40:00, 0.0, 6.2
2022/10/21 00:50:00, 0.1, 6.3
2022/10/21 01:00:00, 0.1, 6.2
2022/10/21 01:10:00, 0.0, 6.1
2022/10/21 01:20:00, 0.0, 6.2
2022/10/21 01:30:00, 0.0, 6.0
2022/10/21 01:40:00, 0.0, 6.0
2022/10/21 01:50:00, 0.0, 6.3
2022/10/21 02:00:00, 0.0, 6.0
2022/10/21 02:10:00, 0.0, 6.0
2022/10/21 02:20:00, 0.0, 5.7
2022/10/21 02:30:00, 0.0, 6.0
2022/10/21 02:40:00, 0.0, 6.0
2022/10/21 02:50:00, 0.0, 6.0
2022/10/21 03:00:00, 0.0, 6.1
2022/10/21 03:10:00, 0.0, 5.9
2022/10/21 03:20:00, 0.0, 5.4
2022/10/21 03:30:00, 0.0, 5.7
2022/10/21 03:40:00, 0.0, 6.0
2022/10/21 03:50:00, 0.0, 5.8
2022/10/21 04:00:00, 0.1, 5.7
2022/10/21 04:10:00, 0.1, 5.8
2022/10/21 04:20:00, 0.1, 6.0
2022/10/21 04:30:00, 0.1, 6.0
2022/10/21 04:40:00, 0.0, 6.0
2022/10/21 04:50:00, 0.0, 6.1
2022/10/21 05:00:00, 0.0, 6.3
2022/10/21 05:10:00, 0.0, 6.3
2022/10/21 05:20:00, 0.0, 6.7
2022/10/21 05:30:00, 0.0, 6.6
2022/10/21 05:40:00, 0.0, 6.7
2022/10/21 05:50:00, 0.0, 6.4
2022/10/21 06:00:00, 0.0, 7.0
2022/10/21 06:10:00, 0.1, 6.7
2022/10/21 06:20:00, 0.0, 6.7
2022/10/21 06:30:00, 0.1, 6.7
2022/10/21 06:40:00, 0.1, 6.6
2022/10/21 06:50:00, 0.1, 7.1
2022/10/21 07:00:00, 0.0, 7.3
2022/10/21 07:10:00, 0.0, 7.7
2022/10/21 07:20:00, 0.0, 8.0
2022/10/21 07:30:00, 0.0, 8.5
2022/10/21 07:40:00, 0.0, 9.0
2022/10/21 07:50:00, 0.0, 9.5
2022/10/21 08:00:00, 0.0, 9.6
2022/10/21 08:10:00, 0.0, 9.8
2022/10/21 08:20:00, 0.0,10.0
2022/10/21 08:30:00, 0.0,10.3
2022/10/21 08:40:00, 0.0,10.5
2022/10/21 08:50:00, 0.0,10.8
2022/10/21 09:00:00, 0.0,11.4
2022/10/21 09:10:00, 0.0,12.8
2022/10/21 09:20:00, 0.1,13.5
2022/10/21 09:30:00, 0.1,14.0
2022/10/21 09:40:00, 0.0,14.0
2022/10/21 09:50:00, 0.2,15.2
2022/10/21 10:00:00, 0.1,15.5
2022/10/21 10:10:00, 0.1,16.4
2022/10/21 10:20:00, 0.2,15.8
2022/10/21 10:30:00, 0.2,17.6
2022/10/21 10:40:00, 0.2,17.0
2022/10/21 10:50:00, 0.1,18.8
2022/10/21 11:00:00, 0.1,20.4
2022/10/21 11:10:00, 0.0,21.4
2022/10/21 11:20:00, 0.1,21.3
2022/10/21 11:30:00, 0.3,20.6
2022/10/21 11:40:00, 0.2,20.5
2022/10/21 11:50:00, 0.2,20.8
2022/10/21 12:00:00, 0.1,20.7
2022/10/21 12:10:00, 0.1,20.8
2022/10/21 12:20:00, 0.2,21.1
2022/10/21 12:30:00, 0.2,21.3
2022/10/21 12:40:00, 0.2,21.0
2022/10/21 12:50:00, 0.2,21.3
2022/10/21 13:00:00, 0.2,22.6
2022/10/21 13:10:00, 0.1,21.5
2022/10/21 13:20:00, 0.1,21.7
2022/10/21 13:30:00, 0.1,21.1
2022/10/21 13:40:00, 0.0,20.5
2022/10/21 13:50:00, 0.1,21.0
2022/10/21 14:00:00, 0.1,21.2
2022/10/21 14:10:00, 0.0,20.8
2022/10/21 14:20:00, 0.0,21.2
2022/10/21 14:30:00, 0.1,19.5
2022/10/21 14:40:00, 0.1,20.5
2022/10/21 14:50:00, 0.1,18.8
2022/10/21 15:00:00, 0.1,19.2
2022/10/21 15:10:00, 0.0,17.6
2022/10/21 15:20:00, 0.0,17.5
2022/10/21 15:30:00, 0.0,17.6
2022/10/21 15:40:00, 0.0,17.5
2022/10/21 15:50:00, 0.0,17.5
2022/10/21 16:00:00, 0.0,16.8
2022/10/21 16:10:00, 0.0,15.8
2022/10/21 16:20:00, 0.0,15.2
2022/10/21 16:30:00, 0.0,14.9
2022/10/21 16:40:00, 0.0,14.8
2022/10/21 16:50:00, 0.0,14.4
2022/10/21 17:00:00, 0.0,14.3
2022/10/21 17:10:00, 0.1,13.8
2022/10/21 17:20:00, 0.1,13.7
2022/10/21 17:30:00, 0.0,13.5
2022/10/21 17:40:00, 0.0,13.2
2022/10/21 17:50:00, 0.0,13.1
2022/10/21 18:00:00, 0.0,12.8
2022/10/21 18:10:00, 0.0,12.9
2022/10/21 18:20:00, 0.0,13.1
2022/10/21 18:30:00, 0.0,13.1
2022/10/21 18:40:00, 0.0,13.2
2022/10/21 18:50:00, 0.0,13.1
2022/10/21 19:00:00, 0.0,13.1
2022/10/21 19:10:00, 0.0,12.8
2022/10/21 19:20:00, 0.0,13.1
2022/10/21 19:30:00, 0.0,13.1
2022/10/21 19:40:00, 0.0,13.1
2022/10/21 19:50:00, 0.1,13.0
2022/10/21 20:00:00, 0.1,13.0
2022/10/21 20:10:00, 0.1,13.4
2022/10/21 20:20:00, 0.1,13.4
2022/10/21 20:30:00, 0.1,13.1
2022/10/21 20:40:00, 0.1,13.1
2022/10/21 20:50:00, 0.1,13.2
2022/10/21 21:00:00, 0.1,13.2
2022/10/21 21:10:00, 0.0,13.0
2022/10/21 21:20:00, 0.0,13.2
2022/10/21 21:30:00, 0.0,13.1
2022/10/21 21:40:00, 0.0,13.1
2022/10/21 21:50:00, 0.0,12.9
2022/10/21 22:00:00, 0.0,13.2
2022/10/21 22:10:00, 0.0,13.1
2022/10/21 22:20:00, 0.0,13.2
2022/10/21 22:30:00, 0.0,13.2
2022/10/21 22:40:00, 0.0,13.2
2022/10/21 22:50:00, 0.0,13.1
2022/10/21 23:00:00, 0.0,13.2
2022/10/21 23:10:00, 0.0,13.2
2022/10/21 23:20:00, 0.0,13.2
2022/10/21 23:30:00, 0.0,13.1
2022/10/21 23:40:00, 0.0,13.1
2022/10/21 23:50:00, 0.0,13.0
